| time (UTC) | temp F | wind direction | speed MPH | gust MPH | rain 1hr in | rain 24hr in | rain mn in | humidity % | barometer mb |
| 20260510134556 | 73 | 0 | 0.0 | 0.0 | 0.00 | 0.50 | 0.00 | 97 | 1016.8 |
| 20260510133100 | 73 | 0 | 0.0 | 0.0 | 0.00 | 0.50 | 0.00 | 97 | 1016.8 |
| 20260510131558 | 72 | 0 | 0.0 | 0.0 | 0.00 | 0.50 | 0.00 | 97 | 1016.5 |
| 20260510130057 | 71 | 0 | 0.0 | 0.0 | 0.00 | 0.50 | 0.00 | 97 | 1016.5 |
| 20260510124603 | 70 | 0 | 0.0 | 0.0 | 0.00 | 0.50 | 0.00 | 97 | 1016.4 |
| 20260510123101 | 69 | 0 | 0.0 | 0.0 | 0.00 | 0.50 | 0.00 | 97 | 1016.2 |
| 20260510121558 | 69 | 0 | 0.0 | 0.0 | 0.00 | 0.50 | 0.00 | 97 | 1015.9 |
| 20260510120057 | 68 | 0 | 0.0 | 0.0 | 0.00 | 0.50 | 0.00 | 97 | 1015.8 |
| 20260510114606 | 68 | 0 | 0.0 | 0.0 | 0.00 | 0.50 | 0.00 | 96 | 1015.5 |
| 20260510113056 | 68 | 0 | 0.0 | 0.0 | 0.00 | 0.50 | 0.00 | 96 | 1015.4 |
| 20260510111559 | 68 | 0 | 0.0 | 0.0 | 0.00 | 0.50 | 0.00 | 96 | 1015.1 |
| 20260510110058 | 68 | 0 | 0.0 | 0.0 | 0.00 | 0.50 | 0.00 | 96 | 1014.9 |
| 20260510104619 | 68 | 0 | 0.0 | 0.0 | 0.00 | 0.50 | 0.00 | 96 | 1014.6 |
| 20260510103101 | 68 | 0 | 0.0 | 0.0 | 0.00 | 0.50 | 0.00 | 96 | 1014.5 |
| 20260510101558 | 68 | 0 | 0.0 | 0.0 | 0.00 | 0.50 | 0.00 | 96 | 1014.3 |
| 20260510100058 | 68 | 0 | 0.0 | 0.0 | 0.00 | 0.50 | 0.00 | 96 | 1014.2 |
| 20260510094600 | 68 | 0 | 0.0 | 0.0 | 0.00 | 0.50 | 0.00 | 95 | 1014.1 |
| 20260510093101 | 68 | 0 | 0.0 | 0.0 | 0.00 | 0.50 | 0.00 | 95 | 1014.0 |
| 20260510091556 | 68 | 0 | 0.0 | 0.0 | 0.00 | 0.50 | 0.00 | 95 | 1013.8 |
| 20260510090109 | 68 | 0 | 0.0 | 0.0 | 0.00 | 0.50 | 0.00 | 95 | 1013.6 |
| 20260510084600 | 68 | 0 | 0.0 | 0.0 | 0.00 | 0.50 | 0.00 | 95 | 1013.5 |
| 20260510083105 | 69 | 0 | 0.0 | 0.0 | 0.00 | 0.50 | 0.00 | 95 | 1013.4 |
| 20260510081601 | 69 | 0 | 0.0 | 0.0 | 0.00 | 0.50 | 0.00 | 95 | 1013.5 |
| 20260510074625 | 69 | 0 | 0.0 | 0.0 | 0.00 | 0.50 | 0.00 | 96 | 1013.2 |
| 20260510073058 | 69 | 0 | 0.0 | 0.0 | 0.00 | 0.50 | 0.00 | 96 | 1013.3 |
| 20260510071602 | 70 | 0 | 0.0 | 0.0 | 0.00 | 0.50 | 0.00 | 96 | 1013.4 |
| 20260510070058 | 70 | 0 | 0.0 | 0.0 | 0.00 | 0.50 | 0.00 | 96 | 1013.4 |
| 20260510064611 | 70 | 0 | 0.0 | 0.0 | 0.00 | 0.50 | 0.00 | 96 | 1013.4 |
| 20260510063102 | 70 | 0 | 0.0 | 0.0 | 0.00 | 0.50 | 0.00 | 96 | 1013.4 |
| 20260510061558 | 70 | 0 | 0.0 | 0.0 | 0.00 | 0.50 | 0.00 | 96 | 1013.5 |
| 20260510060100 | 69 | 0 | 0.0 | 0.0 | 0.00 | 0.50 | 0.00 | 96 | 1013.7 |
| 20260510054556 | 69 | 0 | 0.0 | 0.0 | 0.00 | 0.50 | 0.00 | 96 | 1013.7 |
| 20260510053058 | 69 | 0 | 0.0 | 0.0 | 0.00 | 0.50 | 0.00 | 96 | 1013.9 |
| 20260510051603 | 69 | 0 | 0.0 | 0.0 | 0.00 | 0.50 | 0.00 | 96 | 1014.1 |
| 20260510050056 | 69 | 0 | 0.0 | 0.0 | 0.00 | 0.50 | 0.00 | 96 | 1014.2 |
| 20260510044557 | 69 | 0 | 0.0 | 0.0 | 0.00 | 0.50 | 0.00 | 96 | 1014.3 |
| 20260510043103 | 69 | 0 | 0.0 | 0.0 | 0.00 | 0.50 | 0.00 | 96 | 1014.7 |
| 20260510041610 | 69 | 0 | 0.0 | 0.0 | 0.00 | 0.50 | 0.00 | 96 | 1015.0 |
| 20260510040058 | 69 | 0 | 0.0 | 0.0 | 0.00 | 0.50 | 0.00 | 96 | 1015.1 |
| 20260510034557 | 69 | 0 | 0.0 | 0.0 | 0.00 | 0.50 | 0.50 | 96 | 1015.2 |
| 20260510033056 | 69 | 0 | 0.0 | 0.0 | 0.00 | 0.50 | 0.50 | 96 | 1015.0 |
| 20260510031601 | 69 | 0 | 0.0 | 0.0 | 0.00 | 0.50 | 0.50 | 96 | 1014.9 |
| 20260510030059 | 69 | 0 | 0.0 | 0.0 | 0.00 | 0.50 | 0.50 | 95 | 1014.9 |
| 20260510024601 | 69 | 0 | 0.0 | 0.0 | 0.00 | 0.50 | 0.50 | 95 | 1014.8 |
| 20260510023056 | 69 | 0 | 0.0 | 0.0 | 0.00 | 0.50 | 0.50 | 95 | 1014.7 |
| 20260510021558 | 69 | 0 | 0.0 | 0.0 | 0.00 | 0.50 | 0.50 | 95 | 1014.6 |
| 20260510020056 | 69 | 0 | 0.0 | 0.0 | 0.00 | 0.50 | 0.50 | 95 | 1014.5 |
| 20260510014556 | 69 | 0 | 0.0 | 0.0 | 0.00 | 0.50 | 0.50 | 95 | 1014.1 |
| 20260510013108 | 69 | 0 | 0.0 | 0.0 | 0.00 | 0.50 | 0.50 | 95 | 1014.0 |
| 20260510011557 | 69 | 0 | 0.0 | 0.0 | 0.00 | 0.50 | 0.50 | 95 | 1013.8 |
| 20260510010110 | 69 | 0 | 0.0 | 0.0 | 0.00 | 0.50 | 0.50 | 94 | 1013.7 |
| 20260510004600 | 69 | 0 | 0.0 | 0.0 | 0.01 | 0.50 | 0.50 | 94 | 1013.5 |
| 20260510003059 | 69 | 0 | 0.0 | 0.0 | 0.01 | 0.50 | 0.50 | 94 | 1013.3 |
| 20260510001556 | 69 | 0 | 0.0 | 0.0 | 0.01 | 0.50 | 0.50 | 94 | 1013.7 |
| 20260510000119 | 69 | 0 | 0.0 | 0.0 | 0.02 | 0.50 | 0.50 | 94 | 1013.7 |
| 20260509234609 | 69 | 0 | 0.0 | 0.0 | 0.04 | 0.51 | 0.49 | 94 | 1013.5 |
| 20260509233055 | 69 | 0 | 0.0 | 0.0 | 0.10 | 0.51 | 0.49 | 94 | 1013.5 |
| 20260509231558 | 70 | 0 | 0.0 | 0.0 | 0.14 | 0.51 | 0.49 | 93 | 1014.1 |
| 20260509224555 | 70 | 0 | 0.0 | 0.0 | 0.10 | 0.47 | 0.45 | 93 | 1014.3 |
| 20260509223057 | 71 | 0 | 0.0 | 0.0 | 0.03 | 0.40 | 0.38 | 93 | 1014.5 |
| 20260509221611 | 71 | 0 | 0.0 | 0.0 | 0.00 | 0.37 | 0.35 | 92 | 1014.1 |
| 20260509220105 | 71 | 0 | 0.0 | 0.0 | 0.00 | 0.37 | 0.35 | 92 | 1014.1 |
| 20260509214600 | 71 | 0 | 0.0 | 0.0 | 0.00 | 0.37 | 0.35 | 93 | 1013.8 |
| 20260509213102 | 71 | 0 | 0.0 | 0.0 | 0.01 | 0.37 | 0.35 | 92 | 1013.7 |
| 20260509211603 | 71 | 0 | 0.0 | 0.0 | 0.01 | 0.37 | 0.35 | 92 | 1013.6 |
| 20260509210105 | 71 | 0 | 0.0 | 0.0 | 0.01 | 0.37 | 0.35 | 91 | 1013.4 |
| 20260509204603 | 71 | 0 | 0.0 | 0.0 | 0.01 | 0.70 | 0.35 | 91 | 1013.4 |
| 20260509203104 | 72 | 0 | 0.0 | 0.0 | 0.00 | 0.69 | 0.34 | 90 | 1013.5 |
| 20260509201559 | 73 | 0 | 0.0 | 0.0 | 0.00 | 0.69 | 0.34 | 89 | 1013.4 |
| 20260509200107 | 74 | 0 | 0.0 | 0.0 | 0.00 | 0.69 | 0.34 | 88 | 1013.4 |
| 20260509194601 | 75 | 0 | 0.0 | 0.0 | 0.00 | 0.69 | 0.34 | 92 | 1013.4 |
| 20260509193127 | 75 | 0 | 0.0 | 0.0 | 0.00 | 0.69 | 0.34 | 93 | 1013.3 |
| 20260509191615 | 75 | 0 | 0.0 | 0.0 | 0.00 | 0.69 | 0.34 | 93 | 1013.2 |
| 20260509190118 | 75 | 0 | 0.0 | 0.0 | 0.00 | 0.69 | 0.34 | 92 | 1013.7 |
| 20260509184600 | 75 | 0 | 0.0 | 0.0 | 0.11 | 0.69 | 0.34 | 92 | 1013.5 |
| 20260509183059 | 76 | 0 | 0.0 | 0.0 | 0.11 | 0.69 | 0.34 | 92 | 1013.6 |
| 20260509181602 | 76 | 0 | 0.0 | 0.0 | 0.28 | 0.69 | 0.34 | 91 | 1013.7 |
| 20260509180100 | 76 | 0 | 0.0 | 0.0 | 0.34 | 0.69 | 0.34 | 89 | 1013.9 |
| 20260509174603 | 78 | 0 | 0.0 | 0.0 | 0.23 | 0.58 | 0.23 | 87 | 1013.7 |
| 20260509173109 | 80 | 0 | 0.0 | 0.0 | 0.23 | 0.58 | 0.23 | 83 | 1013.8 |
| 20260509171621 | 81 | 0 | 0.0 | 0.0 | 0.06 | 0.41 | 0.06 | 80 | 1014.0 |
| 20260509170055 | 81 | 0 | 0.0 | 0.0 | 0.00 | 0.35 | 0.00 | 75 | 1014.0 |
| 20260509164557 | 82 | 0 | 0.0 | 0.0 | 0.00 | 0.35 | 0.00 | 75 | 1013.9 |
| 20260509163104 | 82 | 0 | 0.0 | 0.0 | 0.00 | 0.35 | 0.00 | 75 | 1014.2 |
| 20260509161558 | 81 | 0 | 0.0 | 0.0 | 0.00 | 0.35 | 0.00 | 75 | 1014.1 |
| 20260509160055 | 80 | 0 | 0.0 | 0.0 | 0.00 | 0.35 | 0.00 | 78 | 1014.1 |
| 20260509154558 | 79 | 0 | 0.0 | 0.0 | 0.00 | 0.35 | 0.00 | 80 | 1014.0 |
| 20260509153101 | 79 | 0 | 0.0 | 0.0 | 0.00 | 0.35 | 0.00 | 79 | 1013.5 |
| 20260509151607 | 78 | 0 | 0.0 | 0.0 | 0.00 | 0.35 | 0.00 | 81 | 1013.9 |
| 20260509150058 | 77 | 0 | 0.0 | 0.0 | 0.00 | 0.35 | 0.00 | 81 | 1013.7 |
| 20260509144557 | 77 | 0 | 0.0 | 0.0 | 0.00 | 0.35 | 0.00 | 82 | 1013.9 |
| 20260509143057 | 76 | 0 | 0.0 | 1.0 | 0.00 | 0.35 | 0.00 | 83 | 1014.0 |
| 20260509141557 | 76 | 0 | 0.0 | 0.0 | 0.00 | 0.35 | 0.00 | 85 | 1014.3 |
| 20260509140104 | 75 | 0 | 0.0 | 0.0 | 0.00 | 0.35 | 0.00 | 83 | 1014.0 |